Newport, Rhode Island, United States (02840)
Lat: 41.49N, Lon: 71.31W
Wx Zone: RIZ007
Local Info
Past Weather Observations for Today

NOTE: This archive is for the closest National Weather Service station to Newport. Information may differ from the station used for current weather conditions.

Click here for Long-term Archive

Time Weather Temperature Dewpoint Humidity Pressure Winds Precip Visibility
17:53
Clear
79°F / 26°C 70°F / 21°C 74% 29.95 in
(1014 mb)
SSE 6.9 mph
(SSE 11 kph)
- 10SM
16:53
Clear
79°F / 26°C 72°F / 22°C 79% 29.95 in
(1014 mb)
SW 8.1 mph
(SW 13 kph)
- 10SM
15:53
Clear
81°F / 27°C 72°F / 22°C 74% 29.95 in
(1014 mb)
S 9.2 mph
(S 15 kph)
- 10SM
14:53
Clear
82°F / 28°C 72°F / 22°C 70% 29.95 in
(1014 mb)
S 9.2 mph
(S 15 kph)
- 10SM
13:53
Clear
81°F / 27°C 72°F / 22°C 74% 29.95 in
(1014 mb)
S 8.1 mph
(S 13 kph)
- 10SM
12:53
Clear
81°F / 27°C 72°F / 22°C 74% 29.98 in
(1015 mb)
S 10.4 mph
(S 17 kph)
- 10SM
11:53
Clear
81°F / 27°C 72°F / 22°C 74% 29.98 in
(1015 mb)
SW 9.2 mph
(SW 15 kph)
- 10SM
10:53
Clear
81°F / 27°C 72°F / 22°C 74% 30.01 in
(1016 mb)
S 8.1 mph
(S 13 kph)
- 10SM
10:06
Partly Cloudy
79°F / 26°C 72°F / 22°C 79% 30.01 in
(1016 mb)
SW 6.9 mph
(SW 11 kph)
- 10SM
09:53
Mostly Cloudy
79°F / 26°C 72°F / 22°C 79% 30.01 in
(1016 mb)
SW 5.8 mph
(SW 9 kph)
- 10SM
08:53
Mostly Cloudy
77°F / 25°C 72°F / 22°C 83% 30.01 in
(1016 mb)
SW 4.6 mph
(SW 7 kph)
- 9SM
08:37
Overcast
75°F / 24°C 72°F / 22°C 89% 30.01 in
(1016 mb)
Variable 4.6 mph
(Variable 7 kph)
- 7SM
07:53
Overcast
Fog And Mist
75°F / 24°C 72°F / 22°C 89% 30.01 in
(1016 mb)
Calm - 6SM
06:53
Overcast
Fog And Mist
73°F / 23°C 72°F / 22°C 94% 30.01 in
(1016 mb)
S 4.6 mph
(S 7 kph)
- 4SM
05:53
Overcast
Fog And Mist
72°F / 22°C 70°F / 21°C 94% 30.01 in
(1016 mb)
SW 4.6 mph
(SW 7 kph)
- 3SM
04:53
Overcast
Fog And Mist
72°F / 22°C 70°F / 21°C 94% 30.01 in
(1016 mb)
SSE 4.6 mph
(SSE 7 kph)
- 3SM
03:53
Overcast
Fog And Mist
73°F / 23°C 70°F / 21°C 89% 30.01 in
(1016 mb)
SSE 3.5 mph
(SSE 6 kph)
- 4SM
02:53
Overcast
Fog And Mist
72°F / 22°C 70°F / 21°C 94% 29.98 in
(1015 mb)
Variable 3.5 mph
(Variable 6 kph)
- 6SM
02:39
Overcast
Fog And Mist
72°F / 22°C 70°F / 21°C 94% 29.98 in
(1015 mb)
SSE 3.5 mph
(SSE 6 kph)
- 6SM
01:53
Overcast
Fog And Mist
72°F / 22°C 70°F / 21°C 94% 29.98 in
(1015 mb)
Calm - 4SM
00:53
Overcast
Fog And Mist
72°F / 22°C 70°F / 21°C 94% 29.98 in
(1015 mb)
Calm - 4SM
Time Weather Temperature Dewpoint Humidity Pressure Winds Precip Visibility


Weather for websites

WeatherForYou.com, LLC is not responsible for any damages or problems caused by this service. Current weather conditions are obtained from the closest station including government and personal stations which may have varying degrees of accuracy. Weather forecasts are derived from the NOAA NDFD. Like all things, this site belongs to Jesus Christ... He just trusts me to maintain it. If you have any questions or comments email webmaster@weatherforyou.com

Copyright © 2014, WeatherForYou.com LLC. All rights reserved.